H1 CPF 1 NER 2018 8 2 9 7141 glonass102 H2 0606201 9102 29670 2018 8 2 0 0 0 2018 8 5 23 45 0 900 1 1 0 0 0 H9 10 0 58332 0.00000 0 8207632.461 -12880824.663 -20390797.493 10 0 58332 900.00000 0 10423220.122 -13850981.355 -18663298.243 10 0 58332 1800.00000 0 12348526.684 -14882363.483 -16571772.184 10 0 58332 2700.00000 0 13949748.337 -15918724.083 -14156834.430 10 0 58332 3600.00000 0 15205642.587 -16900128.482 -11465485.909 10 0 58332 4500.00000 0 16108185.824 -17765572.395 -8550193.898 10 0 58332 5400.00000 0 16662677.878 -18455667.841 -5467858.181 10 0 58332 6300.00000 0 16887288.757 -18915281.115 -2278683.929 10 0 58332 7200.00000 0 16812067.287 -19096008.599 955014.940 10 0 58332 8100.00000 0 16477454.924 -18958382.946 4170056.411 10 0 58332 9000.00000 0 15932369.737 -18473713.791 7303648.377 10 0 58332 9900.00000 0 15231944.294 -17625483.207 10294636.752 10 0 58332 10800.00000 0 14435016.158 -16410235.671 13084717.057 10 0 58332 11700.00000 0 13601480.149 -14837924.519 15619583.883 10 0 58332 12600.00000 0 12789616.923 -12931700.701 17849994.438 10 0 58332 13500.00000 0 12053512.753 -10727153.740 19732724.920 10 0 58332 14400.00000 0 11440680.539 -8271038.248 21231401.287 10 0 58332 15300.00000 0 10989982.569 -5619541.057 22317189.166 10 0 58332 16200.00000 0 10729941.757 -2836163.010 22969331.105 10 0 58332 17100.00000 0 10677510.829 10695.135 23175522.780 10 0 58332 18000.00000 0 10837349.011 2850341.446 22932123.141 10 0 58332 18900.00000 0 11201634.098 5612487.985 22244196.813 10 0 58332 19800.00000 0 11750415.230 8229921.486 21125390.131 10 0 58332 20700.00000 0 12452489.333 10641040.378 19597645.121 10 0 58332 21600.00000 0 13266762.651 12792155.378 17690758.417 10 0 58332 22500.00000 0 14144039.196 14639461.095 15441794.551 10 0 58332 23400.00000 0 15029160.681 16150599.800 12894365.400 10 0 58332 24300.00000 0 15863408.512 17305755.545 10097789.555 10 0 58332 25200.00000 0 16587067.991 18098235.908 7106147.226 10 0 58332 26100.00000 0 17142048.447 18534519.443 3977248.012 10 0 58332 27000.00000 0 17474450.887 18633768.592 771530.192 10 0 58332 27900.00000 0 17536976.896 18426829.417 -2449088.742 10 0 58332 28800.00000 0 17291078.911 17954760.218 -5622389.543 10 0 58332 29700.00000 0 16708762.383 17266950.291 -8687035.541 10 0 58332 30600.00000 0 15773964.325 16418906.703 -11583742.455 10 0 58332 31500.00000 0 14483449.811 15469800.637 -14256412.323 10 0 58332 32400.00000 0 12847187.443 14479874.789 -16653210.775 10 0 58332 33300.00000 0 10888185.873 13507819.286 -18727567.634 10 0 58332 34200.00000 0 8641795.503 12608225.185 -20439081.879 10 0 58332 35100.00000 0 6154501.278 11829221.864 -21754313.573 10 0 58332 36000.00000 0 3482253.537 11210397.435 -22647447.062 10 0 58332 36900.00000 0 688403.212 10781090.174 -23100811.736 10 0 58332 37800.00000 0 -2158675.656 10559123.965 -23105249.051 10 0 58332 38700.00000 0 -4988179.609 10550042.690 -22660317.056 10 0 58332 39600.00000 0 -7729579.326 10746877.973 -21774326.496 10 0 58332 40500.00000 0 -10315321.450 11130462.364 -20464205.689 10 0 58332 41400.00000 0 -12683416.192 11670277.083 -18755194.628 10 0 58332 42300.00000 0 -14779802.038 12325800.477 -16680372.294 10 0 58332 43200.00000 0 -16560387.615 13048301.630 -14280024.703 10 0 58332 44100.00000 0 -17992683.782 13783003.928 -11600864.828 10 0 58332 45000.00000 0 -19056955.886 14471526.767 -8695119.147 10 0 58332 45900.00000 0 -19746846.586 15054500.901 -5619498.828 10 0 58332 46800.00000 0 -20069442.270 15474244.743 -2434076.580 10 0 58332 47700.00000 0 -20044780.258 15677385.739 798907.235 10 0 58332 48600.00000 0 -19704818.402 15617312.994 4016283.757 10 0 58332 49500.00000 0 -19091912.254 15256354.541 7155213.419 10 0 58332 50400.00000 0 -18256866.495 14567584.712 10154435.173 10 0 58332 51300.00000 0 -17256645.782 13536183.403 12955480.407 10 0 58332 52200.00000 0 -16151844.720 12160288.777 15503825.956 10 0 58332 53100.00000 0 -15004026.616 10451307.286 17749962.262 10 0 58332 54000.00000 0 -13873045.631 8433668.483 19650355.321 10 0 58332 54900.00000 0 -12814466.766 6144036.035 21168283.860 10 0 58332 55800.00000 0 -11877192.961 3630009.526 22274536.310 10 0 58332 56700.00000 0 -11101398.743 948372.883 22947955.625 10 0 58332 57600.00000 0 -10516855.919 -1837036.181 23175823.406 10 0 58332 58500.00000 0 -10141719.536 -4657746.002 22954078.123 10 0 58332 59400.00000 0 -9981822.392 -7443259.215 22287365.620 10 0 58332 60300.00000 0 -10030504.827 -10123741.637 21188923.120 10 0 58332 61200.00000 0 -10268984.154 -12632681.334 19680300.901 10 0 58332 62100.00000 0 -10667245.785 -14909409.549 17790928.509 10 0 58332 63000.00000 0 -11185416.869 -16901381.427 15557534.847 10 0 58332 63900.00000 0 -11775563.668 -18566124.555 13023433.787 10 0 58332 64800.00000 0 -12383836.891 -19872777.401 10237689.012 10 0 58332 65700.00000 0 -12952875.261 -20803156.408 7254173.585 10 0 58332 66600.00000 0 -13424367.292 -21352309.689 4130541.533 10 0 58332 67500.00000 0 -13741664.942 -21528536.146 927129.987 10 0 58332 68400.00000 0 -13852340.754 -21352870.382 -2294188.384 10 0 58332 69300.00000 0 -13710582.354 -20858055.411 -5471181.976 10 0 58332 70200.00000 0 -13279324.682 -20087045.935 -8542444.732 10 0 58332 71100.00000 0 -12532030.787 -19091104.007 -11448567.159 10 0 58332 72000.00000 0 -11454046.215 -17927565.605 -14133272.466 10 0 58332 72900.00000 0 -10043469.072 -16657370.137 -16544497.029 10 0 58332 73800.00000 0 -8311497.446 -15342454.851 -18635395.120 10 0 58332 74700.00000 0 -6282237.141 -14043121.944 -20365248.893 10 0 58332 75600.00000 0 -3991974.585 -12815487.653 -21700266.128 10 0 58332 76500.00000 0 -1487941.815 -11709119.670 -22614249.973 10 0 58332 77400.00000 0 1173378.463 -10764962.005 -23089126.874 10 0 58332 78300.00000 0 3928340.473 -10013634.952 -23115321.260 10 0 58332 79200.00000 0 6708531.623 -9474182.697 -22691968.104 10 0 58332 80100.00000 0 9443379.795 -9153322.885 -21826957.261 10 0 58332 81000.00000 0 12062864.520 -9045231.608 -20536806.662 10 0 58332 81900.00000 0 14500219.606 -9131874.869 -18846364.572 10 0 58332 82800.00000 0 16694514.100 -9383874.390 -16788344.802 10 0 58332 83700.00000 0 18593002.746 -9761872.582 -14402702.161 10 0 58332 84600.00000 0 20153146.146 -10218339.722 -11735859.182 10 0 58332 85500.00000 0 21344214.110 -10699746.872 -8839798.667 10 0 58333 0.00000 0 22148403.352 -11149011.621 -5771040.033 10 0 58333 900.00000 0 22561421.035 -11508111.102 -2589519.909 10 0 58333 1800.00000 0 22592509.655 -11720749.906 642598.484 10 0 58333 2700.00000 0 22263911.137 -11734965.685 3862163.104 10 0 58333 3600.00000 0 21609795.263 -11505560.614 7006290.501 10 0 58333 4500.00000 0 20674698.443 -10996251.971 10013615.983 10 0 58333 5400.00000 0 19511541.714 -10181449.092 12825509.778 10 0 58333 6300.00000 0 18179314.289 -9047579.862 15387233.501 10 0 58333 7200.00000 0 16740523.270 -7593910.117 17649012.880 10 0 58333 8100.00000 0 15258519.532 -5832821.435 19567005.260 10 0 58333 9000.00000 0 13794814.250 -3789536.346 21104143.187 10 0 58333 9900.00000 0 12406500.041 -1501303.760 22230838.450 10 0 58333 10800.00000 0 11143885.056 983919.868 22925534.507 10 0 58333 11700.00000 0 10048438.354 3609237.157 23175098.526 10 0 58333 12600.00000 0 9151130.869 6310949.385 22975047.735 10 0 58333 13500.00000 0 8471238.884 9020979.389 22329608.062 10 0 58333 14400.00000 0 8015657.074 11669477.183 21251606.154 10 0 58333 15300.00000 0 7778746.811 14187500.738 19762198.805 10 0 58333 16200.00000 0 7742723.056 16509662.177 17890446.531 10 0 58333 17100.00000 0 7878561.133 18576631.605 15672740.492 10 0 58333 18000.00000 0 8147383.514 20337397.010 13152094.332 10 0 58333 18900.00000 0 8502267.317 21751189.055 10377314.511 10 0 58333 19800.00000 0 8890396.334 22788993.357 7402064.578 10 0 58333 20700.00000 0 9255467.556 23434589.646 4283840.574 10 0 58333 21600.00000 0 9540251.980 23685076.463 1082876.078 10 0 58333 22500.00000 0 9689203.267 23550860.810 -2139003.440 10 0 58333 23400.00000 0 9651005.879 23055113.848 -5319556.295 10 0 58333 24300.00000 0 9380956.678 22232715.313 -8397309.195 10 0 58333 25200.00000 0 8843080.579 21128730.111 -11312729.396 10 0 58333 26100.00000 0 8011891.486 19796479.568 -14009363.023 10 0 58333 27000.00000 0 6873723.933 18295286.484 -16434918.729 10 0 58333 27900.00000 0 5427578.097 16687986.549 -18542276.563 10 0 58333 28800.00000 0 3685440.602 15038308.609 -20290402.995 10 0 58333 29700.00000 0 1672064.796 13408231.912 -21645154.509 10 0 58333 30600.00000 0 -575783.750 11855429.863 -22579953.899 10 0 58333 31500.00000 0 -3010588.529 10430906.822 -23076325.353 10 0 58333 32400.00000 0 -5575801.201 9176926.902 -23124276.770 10 0 58333 33300.00000 0 -8207950.104 8125322.226 -22722520.294 10 0 58333 34200.00000 0 -10839052.933 7296252.765 -21878524.852 10 0 58333 35100.00000 0 -13399234.963 6697471.315 -20608397.572 10 0 58333 36000.00000 0 -15819444.700 6324126.218 -18936594.225 10 0 58333 36900.00000 0 -18034153.616 6159111.780 -16895462.306 10 0 58333 37800.00000 0 -19983926.489 6173952.955 -14524623.973 10 0 58333 38700.00000 0 -21617753.375 6330187.745 -11870209.608 10 0 58333 39600.00000 0 -22895043.595 6581189.017 -8983956.444 10 0 58333 40500.00000 0 -23787196.159 6874347.937 -5922189.974 10 0 58333 41400.00000 0 -24278678.862 7153525.025 -2744708.875 10 0 58333 42300.00000 0 -24367569.376 7361662.762 486403.116 10 0 58333 43200.00000 0 -24065535.089 7443446.216 3708013.108 10 0 58333 44100.00000 0 -23397252.896 7347895.936 6857196.175 10 0 58333 45000.00000 0 -22399294.637 7030780.316 9872486.482 10 0 58333 45900.00000 0 -21118527.231 6456742.684 12695095.664 10 0 58333 46800.00000 0 -19610097.458 5601051.177 15270072.677 10 0 58333 47700.00000 0 -17935089.080 4450896.259 17547381.021 10 0 58333 48600.00000 0 -16157953.586 3006180.768 19482871.725 10 0 58333 49500.00000 0 -14343824.725 1279769.536 21039133.223 10 0 58333 50400.00000 0 -12555831.135 -702810.915 22186202.418 10 0 58333 51300.00000 0 -10852520.259 -2904208.712 22902124.628 10 0 58333 52200.00000 0 -9285500.969 -5276582.648 23173353.546 10 0 58333 53100.00000 0 -7897402.108 -7763380.715 22994985.675 10 0 58333 54000.00000 0 -6720229.966 -10301486.197 22370827.132 10 0 58333 54900.00000 0 -5774190.370 -12823641.643 21313293.693 10 0 58333 55800.00000 0 -5067021.374 -15261050.197 19843147.994 10 0 58333 56700.00000 0 -4593861.104 -17546047.190 17989080.483 10 0 58333 57600.00000 0 -4337653.213 -19614732.634 15787143.222 10 0 58333 58500.00000 0 -4270070.498 -21409457.218 13280047.972 10 0 58333 59400.00000 0 -4352916.131 -22881060.891 10516342.071 10 0 58333 60300.00000 0 -4539942.702 -23990773.352 7549477.449 10 0 58333 61200.00000 0 -4779012.476 -24711699.543 4436789.899 10 0 58333 62100.00000 0 -5014508.519 -25029830.232 1238407.055 10 0 58333 63000.00000 0 -5189896.245 -24944536.905 -1983895.314 10 0 58333 63900.00000 0 -5250328.837 -24468531.046 -5167868.041 10 0 58333 64800.00000 0 -5145188.152 -23627289.617 -8251973.281 10 0 58333 65700.00000 0 -4830455.152 -22457970.094 -11176557.797 10 0 58333 66600.00000 0 -4270810.714 -21007859.242 -13884993.427 10 0 58333 67500.00000 0 -3441378.310 -19332418.829 -16324763.861 10 0 58333 68400.00000 0 -2329034.468 -17493008.054 -18448477.581 10 0 58333 69300.00000 0 -933230.290 -15554375.915 -20214787.812 10 0 58333 70200.00000 0 733712.872 -13582026.490 -21589201.868 10 0 58333 71100.00000 0 2646849.121 -11639565.665 -22544763.924 10 0 58333 72000.00000 0 4769388.254 -9786139.198 -23062597.194 10 0 58333 72900.00000 0 7053981.623 -8074068.727 -23132293.858 10 0 58333 73800.00000 0 9444463.480 -6546784.658 -22752143.575 10 0 58333 74700.00000 0 11877978.089 -5237143.216 -21929194.229 10 0 58333 75600.00000 0 14287406.301 -4166199.252 -20679141.622 10 0 58333 76500.00000 0 16603991.788 -3342487.694 -19026048.087 10 0 58333 77400.00000 0 18760057.738 -2761845.353 -17001893.472 10 0 58333 78300.00000 0 20691700.043 -2407781.835 -14645965.517 10 0 58333 79200.00000 0 22341343.056 -2252384.834 -12004100.263 10 0 58333 80100.00000 0 23660048.892 -2257721.856 -9127786.755 10 0 58333 81000.00000 0 24609481.257 -2377678.632 -6073153.617 10 0 58333 81900.00000 0 25163439.145 -2560155.134 -2899858.111 10 0 58333 82800.00000 0 25308894.072 -2749524.162 330099.017 10 0 58333 83700.00000 0 25046486.038 -2889245.650 3553607.667 10 0 58333 84600.00000 0 24390456.949 -2924522.884 6707705.037 10 0 58333 85500.00000 0 23368024.888 -2804885.004 9730827.572 10 0 58334 0.00000 0 22018227.020 -2486583.604 12564031.374 10 0 58334 900.00000 0 20390281.793 -1934699.208 15152155.586 10 0 58334 1800.00000 0 18541542.287 -1124868.277 17444903.761 10 0 58334 2700.00000 0 16535128.910 -44554.765 19397822.450 10 0 58334 3600.00000 0 14437343.462 1306185.045 20973157.375 10 0 58334 4500.00000 0 12314974.797 2914477.493 22140571.479 10 0 58334 5400.00000 0 10232609.841 4754953.865 22877712.411 10 0 58334 6300.00000 0 8250062.439 6790605.374 23170620.383 10 0 58334 7200.00000 0 6420026.460 8974133.531 23013970.729 10 0 58334 8100.00000 0 4786049.186 11249738.352 22411148.851 10 0 58334 9000.00000 0 3380906.760 13555269.166 21374158.324 10 0 58334 9900.00000 0 2225446.291 15824648.232 19923365.910 10 0 58334 10800.00000 0 1327939.431 17990466.855 18087089.954 10 0 58334 11700.00000 0 683970.992 19986647.151 15901041.114 10 0 58334 12600.00000 0 276864.305 21751060.319 13407626.776 10 0 58334 13500.00000 0 78623.047 23227994.554 10655132.525 10 0 58334 14400.00000 0 51348.400 24370372.026 7696795.959 10 0 58334 15300.00000 0 149071.263 25141624.707 4589789.871 10 0 58334 16200.00000 0 319922.437 25517152.723 1394133.206 10 0 58334 17100.00000 0 508550.134 25485305.842 -1828450.654 10 0 58334 18000.00000 0 658684.092 25047847.962 -5015707.648 10 0 58334 18900.00000 0 715739.638 24219885.372 -8106037.791 10 0 58334 19800.00000 0 629353.176 23029261.279 -11039669.556 10 0 58334 20700.00000 0 355743.333 21515440.750 -13759802.434 10 0 58334 21600.00000 0 -140201.313 19727930.974 -16213696.827 10 0 58334 22500.00000 0 -883196.044 17724300.755 -18353691.042 10 0 58334 23400.00000 0 -1886268.999 15567879.752 -20138126.205 10 0 58334 24300.00000 0 -3149961.513 13325231.319 -21532161.374 10 0 58334 25200.00000 0 -4662055.975 11063502.444 -22508462.795 10 0 58334 26100.00000 0 -6397845.792 8847759.881 -23047753.170 10 0 58334 27000.00000 0 -8320939.696 6738422.656 -23139209.171 10 0 58334 27900.00000 0 -10384570.323 4788897.724 -22780697.889 10 0 58334 28800.00000 0 -12533355.621 3043517.819 -21978845.749 10 0 58334 29700.00000 0 -14705442.202 1535868.473 -20748936.448 10 0 58334 30600.00000 0 -16834943.047 287575.334 -19114637.717 10 0 58334 31500.00000 0 -18854568.567 -692395.961 -17107560.233 10 0 58334 32400.00000 0 -20698340.933 -1407896.743 -14766655.500 10 0 58334 33300.00000 0 -22304277.085 -1875201.521 -12137463.164 10 0 58334 34200.00000 0 -23616926.136 -2122079.531 -9271221.864 10 0 58334 35100.00000 0 -24589652.458 -2186371.088 -6223861.031 10 0 58334 36000.00000 0 -25186566.095 -2114129.905 -3054894.119 10 0 58334 36900.00000 0 -25384016.993 -1957411.800 173763.535 10 0 58334 37800.00000 0 -25171588.383 -1771805.864 3399027.096 10 0 58334 38700.00000 0 -24552546.404 -1613815.688 6557898.386 10 0 58334 39600.00000 0 -23543726.848 -1538204.692 9588718.643 10 0 58334 40500.00000 0 -22174864.522 -1595421.084 12432391.053 10 0 58334 41400.00000 0 -20487394.987 -1829214.096 15033547.172 10 0 58334 42300.00000 0 -18532781.196 -2274544.301 17341632.962 10 0 58334 43200.00000 0 -16370437.764 -2955877.506 19311892.563 10 0 58334 44100.00000 0 -14065342.281 -3885934.572 20906230.718 10 0 58334 45000.00000 0 -11685435.808 -5064949.358 22093937.750 10 0 58334 45900.00000 0 -9298922.570 -6480464.961 22852264.564 10 0 58334 46800.00000 0 -6971582.101 -8107675.379 23166838.381 10 0 58334 47700.00000 0 -4764205.490 -9910296.668 23031913.424 10 0 58334 48600.00000 0 -2730261.082 -11841929.703 22450454.047 10 0 58334 49500.00000 0 -913884.453 -13847856.543 21434050.935 10 0 58334 50400.00000 0 651726.552 -15867194.784 20002673.972 10 0 58334 51300.00000 0 1945448.359 -17835320.133 18184268.104 10 0 58334 52200.00000 0 2958855.919 -19686456.932 16014201.032 10 0 58334 53100.00000 0 3696311.955 -21356329.841 13534573.967 10 0 58334 54000.00000 0 4174520.346 -22784767.891 10793408.734 10 0 58334 54900.00000 0 4421564.616 -23918154.303 7843726.413 10 0 58334 55800.00000 0 4475473.195 -24711621.837 4742534.474 10 0 58334 56700.00000 0 4382372.312 -25130903.922 1549740.743 10 0 58334 57600.00000 0 4194304.035 -25153765.749 -1672986.270 10 0 58334 58500.00000 0 3966800.420 -24770956.459 -4863390.131 10 0 58334 59400.00000 0 3756314.828 -23986642.949 -7959811.260 10 0 58334 60300.00000 0 3617617.244 -22818306.756 -10902362.375 10 0 58334 61200.00000 0 3601262.140 -21296107.236 -13634073.136 10 0 58334 62100.00000 0 3751234.716 -19461735.985 -16101983.095 10 0 58334 63000.00000 0 4102874.349 -17366808.123 -18258162.696 10 0 58334 63900.00000 0 4681163.080 -15070855.257 -20060643.053 10 0 58334 64800.00000 0 5499452.356 -12639001.282 -21474236.763 10 0 58334 65700.00000 0 6558683.549 -10139415.592 -22471233.570 10 0 58334 66600.00000 0 7847137.668 -7640647.902 -23031956.675 10 0 58334 67500.00000 0 9340727.912 -5208954.236 -23145167.817 10 0 58334 68400.00000 0 11003826.298 -2905724.638 -22808311.663 10 0 58334 69300.00000 0 12790592.983 -785119.723 -22027592.908 10 0 58334 70200.00000 0 14646755.654 1107984.937 -20817882.484 10 0 58334 71100.00000 0 16511766.774 2739659.866 -19202452.509 10 0 58334 72000.00000 0 18321249.749 4088117.381 -17212543.120 10 0 58334 72900.00000 0 20009631.959 5144390.597 -14886767.853 10 0 58334 73800.00000 0 21512853.692 5912466.150 -12270367.866 10 0 58334 74700.00000 0 22771037.771 6408864.270 -9414328.939 10 0 58334 75600.00000 0 23731005.581 6661683.916 -6374378.528 10 0 58334 76500.00000 0 24348531.177 6709153.911 -3209883.225 10 0 58334 77400.00000 0 24590235.955 6597752.788 17330.296 10 0 58334 78300.00000 0 24435041.856 6379979.107 3244205.786 10 0 58334 79200.00000 0 23875120.140 6111869.449 6407712.983 10 0 58334 80100.00000 0 22916294.868 5850372.270 9446101.067 10 0 58334 81000.00000 0 21577884.103 5650692.018 12300123.158 10 0 58334 81900.00000 0 19891986.361 5563718.796 14914205.934 10 0 58334 82800.00000 0 17902243.918 5633654.609 17237539.989 10 0 58334 83700.00000 0 15662137.005 5895938.082 19225068.943 10 0 58334 84600.00000 0 13232882.599 6375555.950 20838358.067 10 0 58334 85500.00000 0 10681027.891 7085812.303 22046326.199 10 0 58335 0.00000 0 8075840.624 8027606.439 22825828.200 10 0 58335 900.00000 0 5486605.943 9189248.635 23162078.605 10 0 58335 1800.00000 0 2979942.417 10546818.695 23048910.352 10 0 58335 2700.00000 0 617248.337 12065052.239 22488866.096 10 0 58335 3600.00000 0 -1547618.210 13698714.463 21493122.520 10 0 58335 4500.00000 0 -3470330.834 15394403.865 20081251.053 10 0 58335 5400.00000 0 -5117678.749 17092709.691 18280821.256 10 0 58335 6300.00000 0 -6468680.537 18730633.307 16126855.543 10 0 58335 7200.00000 0 -7515184.819 20244173.094 13661146.367 10 0 58335 8100.00000 0 -8261935.975 21570966.284 10931449.036 10 0 58335 9000.00000 0 -8726104.811 22652879.073 7990565.254 10 0 58335 9900.00000 0 -8936305.705 23438438.605 4895334.286 10 0 58335 10800.00000 0 -8931142.578 23885006.977 1705549.977 10 0 58335 11700.00000 0 -8757345.070 23960607.883 -1517176.837 10 0 58335 12600.00000 0 -8467572.807 23645330.540 -4710590.045 10 0 58335 13500.00000 0 -8117979.276 22932252.637 -7812973.024 10 0 58335 14400.00000 0 -7765636.550 21827843.444 -10764325.086 10 0 58335 15300.00000 0 -7465927.982 20351829.274 -13507508.173 10 0 58335 16200.00000 0 -7270017.516 18536525.298 -15989342.821 10 0 58335 17100.00000 0 -7222501.418 16425659.388 -18161633.143 10 0 58335 18000.00000 0 -7359341.110 14072734.547 -19982101.496 10 0 58335 18900.00000 0 -7706164.626 11538995.442 -21415214.970 10 0 58335 19800.00000 0 -8277009.471 8891081.027 -22432887.483 10 0 58335 20700.00000 0 -9073561.733 6198458.671 -23015043.134 10 0 58335 21600.00000 0 -10084926.090 3530744.581 -23150028.819 10 0 58335 22500.00000 0 -11287939.423 955020.700 -22834866.554 10 0 58335 23400.00000 0 -12648018.029 -1466740.794 -22075338.721 10 0 58335 24300.00000 0 -14120505.931 -3680038.126 -20885902.527 10 0 58335 25200.00000 0 -15652470.257 -5639886.619 -19289433.140 10 0 58335 26100.00000 0 -17184870.116 -7312464.863 -17316798.465 10 0 58335 27000.00000 0 -18655008.844 -8676290.230 -15006272.080 10 0 58335 27900.00000 0 -19999166.482 -9722873.251 -12402794.425 10 0 58335 28800.00000 0 -21155300.702 -10456822.334 -9557096.032 10 0 58335 29700.00000 0 -22065700.659 -10895394.024 -6524699.897 10 0 58335 30600.00000 0 -22679479.533 -11067508.040 -3364823.208 10 0 58335 31500.00000 0 -22954797.987 -11012269.669 -139201.421 10 0 58335 32400.00000 0 -22860722.170 -10777063.864 3089140.365 10 0 58335 33300.00000 0 -22378635.695 -10415304.172 6257142.371 10 0 58335 34200.00000 0 -21503144.492 -9983934.753 9302964.263 10 0 58335 35100.00000 0 -20242435.729 -9540794.361 12167211.589 10 0 58335 36000.00000 0 -18618075.827 -9141956.916 14794108.537 10 0 58335 36900.00000 0 -16664257.112 -8839163.667 17132592.541 10 0 58335 37800.00000 0 -14426526.320 -8677457.408 19137308.649 10 0 58335 38700.00000 0 -11960050.220 -8693119.616 20769484.276 10 0 58335 39600.00000 0 -9327492.985 -8911997.633 21997668.002 10 0 58335 40500.00000 0 -6596595.703 -9348291.593 22798319.463 10 0 58335 41400.00000 0 -3837560.062 -10003850.724 23156240.842 10 0 58335 42300.00000 0 -1120345.667 -10868006.671 23064843.753 10 0 58335 43200.00000 0 1488007.186 -11917948.833 22526248.740 10 0 58335 44100.00000 0 3925919.419 -13119624.021 21551217.706 10 0 58335 45000.00000 0 6139576.325 -14429121.169 20158922.547 10 0 58335 45900.00000 0 8084899.212 -15794482.101 18376556.084 10 0 58335 46800.00000 0 9729106.844 -17157862.177 16238793.824 10 0 58335 47700.00000 0 11051805.105 -18457950.685 13787117.581 10 0 58335 48600.00000 0 12045562.810 -19632550.576 11069014.018 10 0 58335 49500.00000 0 12715952.530 -20621210.971 8137063.106 10 0 58335 50400.00000 0 13081056.987 -21367803.833 5047933.332 10 0 58335 51300.00000 0 13170463.256 -21822938.680 1861301.853 10 0 58335 52200.00000 0 13023787.695 -21946115.748 -1361280.980 10 0 58335 53100.00000 0 12688793.495 -21707528.615 -4557562.202 10 0 58335 54000.00000 0 12219179.316 -21089441.412 -7665770.925 10 0 58335 54900.00000 0 11672130.878 -20087082.924 -10625795.753 10 0 58335 55800.00000 0 11105737.133 -18709019.396 -13380333.467 10 0 58335 56700.00000 0 10576378.391 -16976988.922 -15875987.978 10 0 58335 57600.00000 0 10136195.185 -14925202.206 -18064299.243 10 0 58335 58500.00000 0 9830743.673 -12599136.240 -19902682.746 10 0 58335 59400.00000 0 9696936.140 -10053868.287 -21355261.631 10 0 58335 60300.00000 0 9761353.830 -7352016.523 -22393575.154 10 0 58335 61200.00000 0 10039004.384 -4561370.309 -22997149.041 10 0 58335 62100.00000 0 10532578.121 -1752306.212 -23153915.629 10 0 58335 63000.00000 0 11232236.966 1004904.624 -22860474.110 10 0 58335 63900.00000 0 12115947.684 3642786.830 -22122183.965 10 0 58335 64800.00000 0 13150348.301 6099237.371 -20953087.696 10 0 58335 65700.00000 0 14292113.887 8319880.712 -19375662.185 10 0 58335 66600.00000 0 15489766.287 10260103.394 -17420401.445 10 0 58335 67500.00000 0 16685852.962 11886681.815 -15125237.126 10 0 58335 68400.00000 0 17819403.527 13178933.719 -12534806.686 10 0 58335 69300.00000 0 18828559.868 14129343.799 -9699582.864 10 0 58335 70200.00000 0 19653267.421 14743636.312 -6674881.402 10 0 58335 71100.00000 0 20237911.819 15040291.491 -3519767.107 10 0 58335 72000.00000 0 20533786.947 15049526.620 -295881.109 10 0 58335 72900.00000 0 20501287.370 14811786.256 2933785.782 10 0 58335 73800.00000 0 20111729.994 14375807.511 6106147.329 10 0 58335 74700.00000 0 19348725.976 13796344.947 9159276.586 10 0 58335 75600.00000 0 18209043.699 13131654.398 12033634.197 10 0 58335 76500.00000 0 16702925.901 12440845.210 14673244.241 10 0 58335 77400.00000 0 14853848.031 11781215.626 17026793.064 10 0 58335 78300.00000 0 12697729.033 11205686.067 19048628.891 10 0 58335 79200.00000 0 10281629.231 10760440.025 20699642.709 10 0 58335 80100.00000 0 7661991.687 10482872.466 21948013.907 10 0 58335 81000.00000 0 4902502.218 10399931.663 22769807.611 10 0 58335 81900.00000 0 2071658.638 10526922.880 23149413.993 10 0 58335 82800.00000 0 -759848.776 10866822.261 23079823.235 10 0 58335 83700.00000 0 -3521836.751 11410127.422 22562733.203 10 0 58335 84600.00000 0 -6147297.241 12135248.690 21608489.974 10 0 58335 85500.00000 0 -8574925.277 13009422.448 20235864.394 99